Location: downtown San Diego
(32.7310°N, 117.1990°W)
Time: 14:12:23
(UTC-07:00)

Daily predictions for brighter satellites

Satellite Brightness Start Highest point End
(mag) Time Altitude Azimuth Time Altitude Azimuth Time Altitude Azimuth
CZ-4 R/B 2.6 19:12:03 10° S 19:16:04 49° W 19:20:01 10° NNW
NOAA 12 4.2 19:12:12 10° SSE 19:17:25 85° WSW 19:22:40 10° NNW
Cosmos 1400 Rocket 2.7 19:15:37 10° N 19:19:34 67° E 19:23:26 10° SSE
Cosmos 1656 3.9 19:17:08 10° N 19:22:27 48° ENE 19:27:50 10° SE
ASTRO E2 2.8 19:18:53 10° WSW 19:22:52 68° S 19:26:43 11° E
Cosmos 1697 Rocket 3.5 19:19:10 10° N 19:24:07 31° ENE 19:29:02 10° SE
Envisat 3.5 19:21:39 10° SE 19:26:16 37° ENE 19:30:56 10° N
Delta 142 4.5 19:23:12 10° SW 19:26:49 29° SSE 19:30:06 12° ESE
FREGAT/IRIS 3.9 19:25:10 10° SE 19:27:29 21° ENE 19:29:48 10° NNE
NOSS 2 (A) 3.9 19:27:23 10° NNW 19:29:45 77° ENE 19:32:26 10° SSE
Cosmos 1544 Rocket 3.5 19:26:49 10° S 19:31:04 64° E 19:35:23 10° NNE
SPOT 3 Rocket 3.9 19:26:58 10° SE 19:31:48 43° ENE 19:36:38 10° N
Cosmos 1378 3.9 19:28:32 10° NNE 19:31:49 29° E 19:35:05 10° SE
Meteosat 1 Rocket2 4.0 19:31:23 10° SW 19:34:44 30° SSE 19:37:56 14° ESE
USA 186 4.0 19:36:20 11° ENE 19:36:20 11° ENE 19:36:47 10° NE
GP-B 4.3 19:32:56 10° NE 19:36:20 21° E 19:39:44 10° SE
Meteor 1-21 4.4 19:31:23 10° N 19:37:06 84° W 19:42:51 10° S
IRS-1A Rocket 4.5 19:33:54 10° S 19:39:24 74° WSW 19:44:55 10° NNW
Meteor 1-15 Rocket 4.4 19:34:30 10° S 19:40:11 54° E 19:45:55 10° NNE
Cosmos 1544 4.1 19:40:13 10° SSE 19:43:17 25° E 19:46:21 10° NE
EO 1 Del DPAF 4.0 19:47:30 10° NE 19:50:50 28° E 19:54:09 10° SSE
Cosmos 2344 3.9 19:46:22 10° SW 19:54:03 71° WNW 20:01:59 10° NNE
Cosmos 2034 Rocket 4.0 19:49:32 10° N 19:55:41 64° E 20:01:51 10° SSE
Cosmos 1486 Rocket 4.4 19:52:02 10° N 19:56:59 42° ENE 20:00:16 20° SE
Tsikada Rocket 3.9 19:52:06 10° S 19:58:08 63° E 20:04:16 10° NNE
COSMOS 2487 3.8 19:56:31 10° SSE 20:04:21 - NNE 19:58:13 22° SE
Resurs 01 Rocket 3.3 20:07:07 18° NE 20:07:07 18° NE 20:09:16 10° NNE
OAO 1 Rocket 4.4 20:01:29 10° WNW 20:06:50 80° N 20:09:32 30° E
COSMOS 2455 3.9 20:02:09 10° SSE 20:05:33 23° SE 20:05:33 23° SE
Cosmos 2082 Rocket 3.5 20:03:09 10° SW 20:08:29 42° WNW 20:13:50 10° N
Cosmos 1707 2.9 20:04:55 10° N 20:08:38 48° E 20:09:43 36° SE
CZ-2D R/B 3.7 20:19:33 11° S 20:23:13 63° W 20:27:05 10° NNW
SL-24 R/B - RUBIN 2 3.6 20:23:22 10° SSW 20:28:17 61° ESE 20:29:33 44° ENE
Cosmos 1602 Rocket 3.4 20:25:17 10° N 20:29:47 81° E 20:31:14 42° SSE
Cosmos 2278 4.4 20:24:32 10° NNW 20:30:03 53° WSW 20:35:31 10° S
Delta 168 4.1 20:30:14 10° SW 20:33:14 30° S 20:33:14 30° S
Cosmos 1980 Rocket 2.1 20:28:04 10° NNW 20:33:43 70° ENE 20:35:19 46° SE
Thor Agena Rocket 4.1 20:33:01 10° NNE 20:36:44 39° ENE 20:36:44 39° ENE
YAOGAN 6 3.6 20:39:40 31° SSW 20:40:55 44° W 20:44:21 10° NNW
BREEZE M DEB (TANK) 3.4 20:33:11 10° NW 20:42:51 52° SW 20:43:57 40° S
Cosmos 1503 Rocket 4.0 20:38:03 10° N 20:43:15 61° ENE 20:43:15 61° ENE
SJ-6B 3.7 20:46:03 39° SW 20:46:47 45° W 20:50:25 10° NNW
Meteor 2-5 Rocket 3.7 20:42:32 10° N 20:48:31 77° E 20:49:48 56° SSE
Resurs 1-3 4.4 20:50:14 41° N 20:50:14 41° N 20:53:12 10° N
Hubble Space Telescope 2.0 20:46:29 10° WSW 20:49:10 34° SW 20:49:10 34° SW
Tiangong 2 4.0 20:48:55 10° WSW 20:50:02 13° SW 20:50:02 13° SW
SL-16 R/B 3.5 20:46:35 10° N 20:49:58 26° NE 20:49:58 26° NE
USA 229 DEB 4.1 20:47:22 10° S 21:02:29 - NE 20:51:41 40° SSE
USA 229 4.2 20:47:28 10° S 21:02:41 - NE 20:51:36 38° SSE
Centaur D-1AR AC-39 4.5 20:25:05 10° W 20:55:22 32° SW 20:59:35 21° S
Meteor 1-22 Rocket 4.2 20:51:34 22° S 20:55:38 82° E 21:01:39 10° N
Atlas Centaur 2 3.5 20:51:47 10° WSW 20:55:47 24° SSW 20:55:58 24° SSW
Cosmos 2084 4.3 20:52:16 10° NW 20:55:05 44° WNW 20:55:05 44° WNW
SJ-11-01 4.5 21:00:38 69° NW 21:00:38 69° NW 21:04:52 10° NNW
Cosmos 2322 Rocket 3.5 20:55:26 10° N 20:58:42 27° NNE 20:58:42 27° NNE
Cosmos 1939 Rocket 4.2 21:02:25 35° WSW 21:02:57 37° W 21:06:49 10° NNW
ASTRO E2 4.3 20:59:19 10° W 21:01:36 32° W 21:01:36 32° W
H-2A R/B 4.0 21:06:46 16° NNE 21:06:46 16° NNE 21:07:55 10° N
Cosmos 1697 Rocket 4.4 21:03:10 10° NW 21:07:55 29° WSW 21:11:46 14° SSW
Cosmos 1354 Rocket 4.3 21:06:35 10° NNW 21:11:15 65° NW 21:11:15 65° NW
USA 234 3.5 21:15:54 52° NE 21:15:54 52° NE 21:22:00 10° NNW
Meteor 1-24 Rocket 4.1 21:16:05 10° N 21:21:17 67° NNW 21:21:17 67° NNW
BREEZE-M DEB (TANK) 4.5 21:20:29 10° WSW 21:27:29 29° NW 21:27:54 29° NW
Timation 2 Rocket 4.2 21:22:42 10° SSW 21:29:26 74° WNW 21:36:21 10° NNE
Resurs 01 Rocket 4.1 21:44:42 19° NW 21:44:42 19° NW 21:46:20 10° NW
